Regional Weather Roundup
Issued by NWS

Home | Current Version | Previous Version | Text Only | Print | Product List | Glossary Off
Versions: 1 2 3 4 5 6 7 8 9 10 11 12 13 14 15 16 17 18 19 20 21 22 23 24 25 26 27 28 29 30 31 32 33 34 35 36 37 38 39 40 41 42 43 44 45 46 47 48 49 50

000
ASUS44 KMEG 282110
RWRTN
TENNESSEE HOURLY STATE WEATHER ROUNDUP
NATIONAL WEATHER SERVICE MEMPHIS TN
400 PM CDT THU MAY 28 2015

TNZ002-004-019-021-049-052-054-088>092-282200-
WEST TENNESSEE

CITY           SKY/WX    TMP DP  RH WIND       PRES   REMARKS
MEMPHIS INTL   PTSUNNY   81  64  56 CALM      30.11F
NWS MEMPHIS      N/A     81 N/A N/A MISG        N/A
JACKSON        MOSUNNY   79  66  64 VRB3      30.12F
DYERSBURG      PTSUNNY   79  55  44 SE7       30.11F
PARIS          SUNNY     81  64  57 SE7       30.12F
LEXINGTON      MOSUNNY   81  66  61 SW3       30.11F
$$

TNZ008-025-027-028-033-062-065-066-282200-
NORTH MIDDLE TENNESSEE

CITY           SKY/WX    TMP DP  RH WIND       PRES   REMARKS
NASHVILLE      PTSUNNY   85  64  49 CALM      30.14F
CLARKSVILLE    MOSUNNY   82  66  58 E7        30.12F
SMYRNA         MOSUNNY   84  65  52 CALM      30.13F
COOKEVILLE     MOSUNNY   81  64  57 VRB6      30.16F
CROSSVILLE     PTSUNNY   75  63  66 S3        30.21F
$$

TNZ061-075-076-078-094-096-097-282200-
SOUTH MIDDLE TENNESSEE

CITY           SKY/WX    TMP DP  RH WIND       PRES   REMARKS
FAYETTEVILLE     N/A    N/A N/A N/A MISG      30.14F
TULLAHOMA      SUNNY     81  64  57 CALM      30.16F
WINCHESTER     MOSUNNY   81  64  57 VRB5      30.15F
MCMINNVILLE    MOSUNNY   82  68  61 E6        30.16F
COLUMBIA       SUNNY     82  66  57 CALM      30.12F
SHELBYVILLE    SUNNY     84  68  58 SW3       30.15F
$$

TNZ017-018-042-046-047-282200-
NORTHEAST TENNESSEE

CITY           SKY/WX    TMP DP  RH WIND       PRES   REMARKS
TRI CITIES     PTSUNNY   78  62  57 S13G24    30.19R THUNDER
$$

TNZ012-013-036-069-073-074-282200-
CENTRAL EAST TENNESSEE

CITY           SKY/WX    TMP DP  RH WIND       PRES   REMARKS
KNOXVILLE      CLOUDY    80  64  58 E3        30.16F
OAK RIDGE      PTSUNNY   82  61  48 VRB5      30.18F
GATLINBURG       N/A     82  64  54 S3        30.16F
MORRISTOWN     CLEAR     82  64  54 S9        30.18F
$$

TNZ083-085-099-282200-
SOUTHEAST TENNESSEE

CITY           SKY/WX    TMP DP  RH WIND       PRES   REMARKS
CHATTANOOGA    PTSUNNY   82  65  56 CALM      30.15F
$$

SKY/WX REPORTED AS FAIR MEANS FEW OR NO CLOUDS BELOW
12 THOUSAND FEET.




USA.gov is the U.S. government's official web portal to all federal, state and local government web resources and services.